logo tempoitalia

Diretta Meteo Split-Resnik, Croazialunedì 31 agosto ore 07:00

Mappa
Sereno 26 °C Sereno 24 Ore: T.min 25 T.max 34
Ponente Nord Km/h 3.7 Punto di rugiada: 18 °C Umidità: 61% Visibilità: 10 Km
Il sole sorge alle: 06:17 Il sole tramonta alle: 19:32
31 Agosto 2026 07:00 tempo osservato: Sereno Sereno 26 61 1013 vento: Nord N 3.7
31 Agosto 2026 06:30 tempo osservato: Sereno Sereno 25 61 1013 vento: Nord N 5.5
31 Agosto 2026 06:00 tempo osservato: Sereno Sereno 27 54 1013 vento: Nord N 5.5
31 Agosto 2026 05:30 tempo osservato: Sereno Sereno 26 57 1013 vento: Nord N 11.1
31 Agosto 2026 05:00 tempo osservato: Sereno Sereno 25 61 1013 vento: Nord N 7.4
31 Agosto 2026 04:30 tempo osservato: Sereno Sereno 25 69 1013 vento: Nord N 7.4
31 Agosto 2026 04:00 tempo osservato: Sereno Sereno 26 73 1013 vento: Nord N 0
31 Agosto 2026 03:30 tempo osservato: Sereno Sereno 26 65 1013 vento: Nord N 3.7
31 Agosto 2026 03:00 tempo osservato: Sereno Sereno 26 61 1013 vento: Nord N 5.5
31 Agosto 2026 02:30 tempo osservato: Sereno Sereno 26 61 1013 vento: Nord E 7.4
31 Agosto 2026 02:00 tempo osservato: Sereno Sereno 26 61 1013 vento: Nord N 7.4
31 Agosto 2026 01:30 tempo osservato: Sereno Sereno 26 73 1013 vento: Nord N 0
31 Agosto 2026 01:00 tempo osservato: Sereno Sereno 25 73 1013 vento: Nord N 1.8
31 Agosto 2026 00:30 tempo osservato: Sereno Sereno 27 69 1013 vento: Nord N 7.4
31 Agosto 2026 00:00 tempo osservato: Sereno Sereno 27 69 1013 vento: Nord N 5.5
30 Agosto 2026 23:30 tempo osservato: Sereno Sereno 28 61 1013 vento: Nord N 5.5
30 Agosto 2026 23:00 tempo osservato: Sereno Sereno 28 65 1013 vento: Nord O/SO 11.1
30 Agosto 2026 22:30 tempo osservato: Sereno Sereno 28 65 1013 vento: Nord SO 13
30 Agosto 2026 22:00 tempo osservato: Sereno Sereno 28 69 1013 vento: Nord SO 11.1
30 Agosto 2026 21:30 tempo osservato: Sereno Sereno 28 69 1013 vento: Nord O/SO 11.1
30 Agosto 2026 21:00 tempo osservato: Sereno Sereno 29 62 1013 vento: Nord SO 11.1
30 Agosto 2026 20:30 tempo osservato: Sereno Sereno 29 51 1012 vento: Nord N 3.7
30 Agosto 2026 20:00 tempo osservato: Sereno Sereno 29 62 1012 vento: Nord N 3.7
30 Agosto 2026 19:30 tempo osservato: Sereno Sereno 30 58 1012 vento: Nord O/SO 11.1
30 Agosto 2026 19:00 tempo osservato: Sereno Sereno 30 62 1012 vento: Nord SO 11.1
30 Agosto 2026 18:30 tempo osservato: Sereno Sereno 31 58 1012 vento: Nord SO 11.1
30 Agosto 2026 18:00 tempo osservato: Sereno Sereno 31 62 1012 vento: Nord SO 13
30 Agosto 2026 17:30 tempo osservato: Sereno Sereno 31 62 1012 vento: Nord SO 14.8
30 Agosto 2026 17:00 tempo osservato: Sereno Sereno 32 55 1012 vento: Nord SO 18.5
30 Agosto 2026 16:30 tempo osservato: Sereno Sereno 32 52 1013 vento: Nord SO 16.7
30 Agosto 2026 16:00 tempo osservato: Sereno Sereno 33 52 1013 vento: Nord SO 18.5
30 Agosto 2026 15:30 tempo osservato: Sereno Sereno 33 52 1013 vento: Nord SO 18.5
30 Agosto 2026 15:00 tempo osservato: Sereno Sereno 33 52 1013 vento: Nord SO 18.5
30 Agosto 2026 14:30 tempo osservato: Sereno Sereno 32 55 1013 vento: Nord SO 18.5
30 Agosto 2026 14:00 tempo osservato: Sereno Sereno 33 52 1013 vento: Nord O/SO 22.2
30 Agosto 2026 13:30 tempo osservato: Poco Nuvoloso Poco Nuvoloso 33 49 1013 vento: Nord O/SO 16.7
30 Agosto 2026 13:00 tempo osservato: Poco Nuvoloso Poco Nuvoloso 34 38 1013 vento: Nord O/SO 11.1
30 Agosto 2026 12:30 tempo osservato: Poco Nuvoloso Poco Nuvoloso 33 41 1014 vento: Nord SO 9.3
30 Agosto 2026 12:00 tempo osservato: Poco Nuvoloso Poco Nuvoloso 33 38 1014 vento: Nord N 7.4
30 Agosto 2026 11:30 tempo osservato: Sereno Sereno 33 36 1014 vento: Nord E/SE 9.3
30 Agosto 2026 11:00 tempo osservato: Sereno Sereno 32 40 1014 vento: Nord E/SE 11.1
30 Agosto 2026 10:30 tempo osservato: Sereno Sereno 32 40 1014 vento: Nord E/SE 7.4
30 Agosto 2026 10:00 tempo osservato: Sereno Sereno 32 40 1014 vento: Nord E 7.4
30 Agosto 2026 09:30 tempo osservato: Sereno Sereno 31 40 1014 vento: Nord E 7.4
30 Agosto 2026 09:00 tempo osservato: Sereno Sereno 30 42 1014 vento: Nord N 5.5
30 Agosto 2026 08:30 tempo osservato: Sereno Sereno 29 51 1014 vento: Nord N 5.5
30 Agosto 2026 08:00 tempo osservato: Sereno Sereno 28 51 1014 vento: Nord N 1.8